Hauptseite
METAR-TAF:

METAR-TAF

Flughäfen :

Celle, Deutschland

Heeresflugplatz Celle

Breite: 52-36N, Länge: 010-01E, Höhe: 39 m

Beobachtung

Neuester Wetterbericht von vor 1 Stunde und 20 Minuten, um 00:20 UTC
Wind 9 kt aus Ost/Nordost
Temperatur -5°C
Luftfeuchtigkeit 58%
Luftdruck 1033 hPa
Sichtweite 10 km oder mehr

METAR: ETHC 250020Z 07009KT 9999 M05/M12 Q1033 BLU+

Zeit: 02:40 (01:40 UTC)


TAF: fehlend

Wetterbeobachtungen und Prognosen von mehr als 4000 Flughäfen (METAR und TAF Bericht).

Die verfügbaren Stationen werden durch gelbe und rote Markierungen auf der Karte dargestellt.

Führen Sie die Maus auf sie, um den Namen der Station zu sehen.

Darauf klicken, um die Beobachtung von Wetterbeobachtungen und Prognosen zu sehen.

Um die Karte zu ändern : klicken Sie auf den grünen Tasten mit einem schwarzen Kreuz Zum Vergrößern, auf den grünen Button mit einem Gedankenstrich zu verkleinern, oder auf die grünen Pfeile für benachbarte Karten.


METAR-TAF: